Theta_e
299 298 298 298 298 298 297 297 297 296 296 296 295 294 294 293 293 294 293 293 292 292 291 291 291 289 290 289 287 286 287 286 288 290 288 286 288 288 288 288 289 287 282 285 287 288 288 287 287 287 288 288 287 287
300 298 299 299 298 298 297 296 297 296 296 296 295 294 294 293 293 293 293 292 292 291 290 290 290 291 291 290 289 286 287 285 286 284 285 284 286 287 287 288 288 290 289 288 287 286 287 286 284 284 284 287 287 287
299 299 299 298 299 298 298 297 297 296 296 295 295 294 294 293 293 293 292 291 289 287 287 288 287 287 288 289 289 287 286 289 287 286 289 285 286 287 288 289 289 290 289 290 290 289 288 288 287 286 287 287 288 288
300 299 298 298 298 297 297 297 297 296 296 295 294 294 293 294 293 292 290 289 288 288 284 285 289 288 287 288 288 289 289 288 286 285 287 286 287 288 289 289 289 289 288 287 288 288 287 287 287 287 288 288 288 288
299 298 297 298 297 297 297 296 296 296 296 295 294 294 293 293 293 292 290 288 288 288 285 285 288 287 288 287 286 287 288 287 286 287 287 286 287 288 287 286 287 287 287 287 287 287 287 287 287 288 287 288 287 287
299 299 298 298 297 297 297 296 296 295 295 294 294 293 293 293 292 289 289 288 289 288 286 283 288 281 283 285 285 286 286 287 287 287 283 284 286 287 286 286 286 286 286 286 287 287 287 287 287 286 287 286 286 285
299 298 297 297 297 296 297 296 295 295 294 294 293 293 293 292 290 289 288 288 288 287 284 283 283 282 281 282 283 284 285 286 286 286 283 286 286 287 287 287 286 285 280 282 278 281 286 285 282 281 283 283 282 282
298 297 297 297 297 296 296 295 295 295 294 293 293 293 293 291 290 289 288 288 287 287 287 281 282 283 281 282 282 283 283 286 286 283 283 282 283 283 284 279 277 276 277 279 275 274 276 276 277 276 274 275 274 276
298 297 297 297 296 296 296 295 295 294 293 293 292 292 290 288 288 286 287 288 287 287 281 281 280 280 279 281 281 278 282 282 280 283 284 284 282 284 277 276 274 273 272 272 270 270 269 270 270 270 269 270 269 271
298 297 297 297 296 295 295 294 294 293 292 291 291 288 286 283 284 284 284 283 281 283 283 280 279 280 283 281 278 280 281 279 280 282 282 281 282 277 276 276 275 274 271 268 267 271 270 269 268 267 266 265 265 267
297 296 296 296 295 295 294 293 293 291 290 290 287 283 280 282 282 282 280 278 277 277 278 279 279 280 281 279 281 284 281 281 283 280 282 281 281 277 275 274 274 274 272 270 269 268 267 264 265 265 266 265 264 265
296 296 296 295 295 295 292 293 290 290 289 287 284 281 280 281 280 280 276 271 272 277 277 277 278 277 278 280 282 282 283 283 282 279 281 281 276 274 272 271 271 270 269 268 269 266 266 265 265 264 265 266 266 267
296 296 295 295 295 292 292 291 290 289 286 283 282 280 282 276 279 276 274 275 273 273 272 273 275 275 279 279 281 283 284 282 279 282 281 276 274 273 271 270 268 268 268 267 266 266 266 264 264 264 265 266 266 267
295 295 295 294 293 292 291 290 289 285 286 285 282 280 280 276 274 277 278 279 276 275 274 275 275 280 280 281 282 283 283 284 283 281 279 275 272 271 271 270 269 267 264 263 263 263 262 262 263 265 265 264 265 266
295 295 294 292 292 291 289 288 285 287 284 282 282 281 275 276 274 271 267 269 271 270 273 274 275 278 279 280 282 283 283 283 280 277 275 272 271 270 270 269 268 265 264 260 261 260 262 264 264 265 264 263 263 264
295 293 292 291 291 289 286 284 286 285 280 279 278 279 270 274 276 270 270 271 272 274 273 275 276 278 280 281 282 282 282 278 275 273 271 270 269 269 268 266 262 262 260 260 261 262 264 265 264 264 263 262 262 261
291 292 292 291 289 286 285 287 286 280 283 279 279 272 275 275 277 275 273 274 276 274 277 279 279 280 283 283 282 274 274 273 271 269 269 268 268 267 264 261 262 261 260 261 262 264 264 264 264 263 263 262 262 261
291 292 288 287 287 286 285 283 281 280 280 277 278 273 271 272 274 272 270 272 274 277 278 278 279 280 282 278 277 273 270 269 268 268 267 267 267 266 264 262 263 263 262 263 264 265 264 265 265 264 263 263 262 262
291 288 287 287 287 286 283 280 279 280 275 273 270 271 270 269 267 268 267 271 272 273 273 277 280 278 275 273 270 268 267 266 266 266 266 267 266 265 265 264 264 264 264 263 263 263 264 263 263 263 263 263 263 263
288 288 287 286 286 284 280 277 278 276 277 273 270 271 270 270 267 267 269 271 274 275 276 275 272 271 270 268 267 266 266 266 265 264 265 265 265 265 265 264 264 264 264 264 264 264 264 263 262 262 262 262 262 261
286 286 286 286 283 280 276 274 272 270 270 272 268 270 270 269 269 269 271 269 270 268 272 269 269 267 266 266 265 266 265 265 264 264 264 264 264 265 264 264 264 264 264 264 264 263 262 262 262 261 261 261 260 260
285 285 284 283 280 277 273 273 271 269 271 268 269 268 270 270 269 269 267 269 267 265 264 266 265 264 264 264 265 265 264 263 264 265 264 265 264 264 264 264 264 263 263 263 263 262 262 261 261 261 261 260 260 260
285 284 280 279 277 273 272 273 271 268 273 271 268 272 269 268 267 266 267 266 265 263 264 264 264 264 264 265 266 265 264 263 264 264 263 264 264 263 263 263 263 263 263 262 262 262 261 261 261 261 261 261 261 261
282 274 273 271 271 272 267 267 267 268 267 269 270 272 269 266 263 270 269 267 263 264 265 264 264 265 266 266 265 264 263 262 264 264 262 262 264 263 263 262 262 262 262 262 262 262 261 261 261 261 261 261 261 261
278 272 271 272 269 271 269 268 266 269 271 265 269 270 267 260 269 267 269 264 263 265 264 264 264 264 262 263 264 264 262 261 262 263 261 261 261 265 265 263 262 262 262 262 262 261 261 261 261 261 261 261 261 261
273 266 270 268 268 272 268 271 269 269 266 268 267 262 261 266 269 271 266 262 262 264 263 262 260 261 262 265 263 263 262 262 263 263 261 260 259 259 260 258 260 262 261 261 261 261 261 260 260 260 260 260 260 261
272 269 263 262 264 263 265 263 263 265 268 270 266 266 266 271 270 265 260 261 262 262 261 261 261 261 261 262 263 263 262 262 262 261 260 260 260 260 260 260 260 260 261 261 261 261 261 261 261 261 261 261 261 262
264 262 268 263 261 259 263 263 265 266 264 259 261 266 269 269 268 260 259 261 260 261 262 263 263 263 262 262 262 263 263 263 263 263 263 262 261 261 261 261 261 261 262 262 262 262 262 262 262 262 262 263 263 263
263 261 261 261 259 259 258 261 262 259 257 258 263 264 262 257 257 259 260 260 260 261 262 262 263 263 263 263 262 262 262 262 262 256 256 254 259 261 261 262 262 262 262 262 262 262 263 263 263 263 263 263 263 263
262 257 258 256 260 262 257 255 256 252 254 253 253 254 255 257 259 260 260 260 260 260 261 261 261 261 260 259 261 262 262 261 261 260 256 256 260 261 262 262 263 263 262 262 263 263 263 263 263 263 263 263 262 262
259 257 257 255 257 255 253 254 255 254 253 252 251 255 256 252 260 260 260 260 260 260 261 260 260 259 259 259 258 258 261 262 261 262 262 262 262 262 262 263 263 263 263 264 264 264 264 264 264 263 263 263 263 262
258 257 257 260 258 253 251 253 253 255 254 256 255 252 253 255 258 259 260 260 260 259 259 258 257 258 258 258 258 259 260 261 261 261 262 262 262 263 263 263 264 264 264 265 264 264 264 264 263 263 263 263 262 262
261 256 254 254 256 258 254 256 255 257 255 255 254 250 251 255 261 260 260 260 259 258 258 258 258 258 259 260 260 261 261 262 262 262 262 262 263 263 264 264 264 265 265 264 264 263 263 263 263 263 262 261 260 260
Wind_Speed
49 47 46 44 44 41 36 34 33 29 26 23 21 18 19 15 16 16 5 18 10 2 3 6 4 3 2 3 3 4 4 2 2 5 3 4 5 7 10 16 17 11 6 6 7 11 16 10 9 15 16 12 8 8
49 50 48 45 43 41 40 36 35 31 26 24 22 19 18 16 14 14 5 8 12 2 3 6 14 17 21 20 4 3 5 2 3 0 2 2 6 8 17 17 23 18 17 10 10 6 5 7 7 5 5 8 8 10
50 50 46 44 40 39 40 38 35 32 27 24 22 20 17 17 15 16 9 12 5 0 4 4 8 20 24 26 25 3 2 6 4 2 4 3 5 3 10 5 5 5 6 7 9 13 17 14 9 6 5 9 10 12
48 47 45 42 42 38 37 38 35 32 27 24 22 19 18 16 17 16 12 12 7 2 1 5 10 9 12 17 17 22 17 5 0 1 4 4 5 5 4 5 6 7 2 7 11 14 10 12 12 12 11 11 13 11
47 47 45 42 39 37 36 34 35 31 27 25 21 19 17 16 18 14 9 12 9 3 2 3 11 21 18 15 14 15 13 7 3 3 4 5 3 5 3 3 7 12 16 8 10 13 11 13 8 9 10 13 11 9
45 44 41 37 37 37 36 36 34 31 28 23 20 18 16 19 19 9 0 7 13 8 1 3 3 1 3 7 9 11 11 5 4 2 3 3 5 3 4 8 12 14 10 10 14 14 15 14 11 8 9 9 7 5
43 42 41 38 37 36 35 34 32 30 24 20 19 16 17 23 21 4 3 4 13 9 1 3 3 1 4 3 3 3 6 3 3 3 4 6 6 6 7 15 15 8 9 9 11 11 9 7 5 12 12 11 13 10
43 40 40 37 37 36 35 36 32 28 22 19 17 14 19 21 13 4 5 12 15 4 1 2 4 2 4 2 2 1 3 4 3 3 2 2 2 2 5 2 6 8 10 4 13 9 8 11 8 9 9 10 8 7
43 41 38 35 33 32 33 36 31 27 22 19 14 18 13 4 3 5 7 10 9 3 2 2 2 3 0 2 1 2 2 3 2 3 3 2 3 5 2 4 5 5 3 8 14 9 6 7 7 8 9 9 8 9
42 39 37 35 33 32 35 36 32 27 27 27 16 4 2 4 10 7 4 2 2 1 2 3 1 3 2 1 3 1 2 3 2 5 1 2 4 7 6 4 3 4 3 4 5 9 13 13 11 12 8 6 7 10
42 40 36 35 33 32 38 37 33 39 26 7 3 2 5 11 3 2 2 1 1 3 3 3 3 3 1 2 3 3 2 2 3 4 3 3 1 4 6 5 7 6 4 3 4 7 7 8 11 13 12 8 9 12
43 37 36 35 34 37 39 40 42 21 11 11 15 11 5 2 3 3 2 2 1 4 2 2 3 3 3 0 2 2 3 2 5 1 2 2 3 5 4 5 5 4 5 6 9 7 9 10 11 9 10 10 13 16
40 39 37 35 36 41 40 41 25 28 29 14 5 4 2 1 2 5 4 4 2 3 3 2 3 3 1 1 3 3 4 5 2 2 3 3 4 6 7 4 5 7 7 8 8 14 15 14 17 14 10 14 16 16
38 37 36 37 43 40 41 35 32 27 8 3 4 3 4 2 4 4 3 3 2 0 1 2 2 2 3 3 3 4 3 2 3 3 3 2 7 11 7 7 7 7 5 6 7 12 11 12 12 15 13 14 14 11
37 34 40 42 41 40 36 32 30 15 4 3 3 4 4 2 0 0 0 2 2 0 0 2 2 1 1 3 2 3 3 4 3 3 3 6 10 8 9 9 7 5 9 6 11 8 11 12 10 9 12 12 12 11
39 42 36 40 42 38 32 29 16 4 4 3 2 3 1 2 2 1 2 2 1 1 1 1 3 2 3 2 3 3 5 3 3 5 7 8 9 10 9 5 5 8 11 11 14 13 12 9 8 7 9 12 12 12
29 18 37 44 40 32 29 12 4 4 2 3 0 1 2 1 2 1 1 1 1 1 1 1 2 4 2 3 1 2 2 5 8 8 6 8 10 9 5 6 9 13 13 14 12 11 10 9 7 7 6 10 12 13
34 40 48 41 39 28 12 4 3 3 2 1 3 2 1 1 1 2 1 1 1 1 1 1 2 2 2 4 2 2 4 6 6 6 7 9 7 8 11 7 12 12 12 12 11 9 10 9 5 5 7 8 9 10
45 46 37 34 21 7 3 2 3 3 1 2 2 1 2 2 1 1 1 1 1 2 2 1 3 2 2 2 3 5 6 6 8 9 8 10 13 10 10 12 12 9 9 9 10 8 8 10 9 8 8 9 8 9
41 34 27 20 11 5 4 2 3 4 2 2 2 2 1 2 1 0 0 2 1 1 2 2 2 1 2 2 3 5 5 5 6 7 7 7 13 13 10 10 9 11 9 8 8 10 7 8 11 12 12 10 8 9
30 21 18 13 6 10 4 1 3 1 2 2 1 1 1 1 2 2 2 2 2 2 2 2 1 1 6 7 8 9 8 8 5 4 6 7 13 12 10 11 10 9 8 7 6 8 9 9 10 10 11 12 11 11
14 16 8 7 5 4 4 7 3 1 2 2 2 1 2 2 1 1 2 3 2 1 1 2 2 2 4 3 7 9 11 13 11 8 10 10 5 5 8 11 9 6 8 9 9 8 9 10 9 9 10 10 10 11
14 6 6 6 5 5 2 3 3 4 3 1 1 2 2 1 1 2 2 1 1 1 2 3 5 10 9 10 9 7 10 11 8 7 9 11 7 10 9 9 10 8 6 10 10 9 10 8 9 9 8 8 10 13
6 6 4 3 3 1 2 4 2 2 3 3 2 1 1 1 3 2 2 1 1 2 1 6 9 4 4 4 2 7 11 11 9 5 12 11 7 9 10 10 11 11 10 7 7 7 7 8 7 7 7 8 9 11
5 6 4 4 3 4 4 3 4 4 1 1 2 2 2 2 2 3 1 1 1 1 2 7 7 5 1 2 5 8 14 13 9 5 12 11 10 5 7 9 10 10 8 7 8 7 6 5 5 5 6 7 8 8
5 4 3 1 2 3 2 2 1 3 2 2 1 2 2 2 3 1 1 1 1 2 2 3 3 3 2 6 4 7 12 17 9 3 7 11 8 5 6 3 4 7 9 6 5 3 3 3 4 5 6 6 5 3
3 1 2 0 1 2 3 2 1 3 2 1 1 2 2 3 1 2 1 1 1 3 7 7 6 6 7 12 11 10 13 11 8 6 9 11 10 8 6 5 5 7 8 6 5 3 2 2 2 2 2 2 2 3
2 2 4 2 3 1 4 2 2 1 1 2 2 3 3 3 2 2 1 3 8 10 9 7 5 6 11 11 12 12 9 9 9 6 4 3 8 9 7 6 6 6 6 6 6 5 4 4 3 3 3 4 5 5
3 2 3 4 3 4 2 2 1 1 1 1 3 1 1 1 1 2 3 11 9 6 8 10 7 11 6 9 6 8 11 9 6 4 3 2 4 7 7 7 7 6 6 5 6 7 6 4 4 4 5 5 6 7
2 1 4 2 3 1 2 1 1 1 2 1 1 1 2 1 2 4 10 11 8 7 9 9 9 11 12 12 12 7 6 10 7 1 2 1 3 4 5 6 6 5 6 5 6 5 6 7 7 8 8 9 10 11
0 3 4 3 1 2 2 1 0 0 1 1 1 2 2 2 1 5 11 13 9 8 8 12 11 10 10 13 11 10 4 9 10 4 3 4 4 4 5 5 5 5 5 6 8 9 10 10 11 11 11 12 12 13
3 2 3 3 2 3 2 2 0 1 2 2 3 2 3 3 3 4 11 15 11 10 9 11 13 11 13 12 9 7 7 3 4 6 5 5 5 5 5 5 5 5 7 8 10 11 12 12 13 13 15 16 17 18
2 2 2 3 3 4 3 3 4 2 3 3 3 0 0 1 1 2 10 16 11 9 11 12 13 13 11 8 5 2 3 3 3 4 4 5 6 6 6 6 7 8 9 10 11 12 14 15 17 18 19 21 23 24
Wind_Direction
194 197 197 193 193 191 191 194 195 192 193 196 197 199 199 201 201 199 212 203 177 205 250 187 190 203 253 210 203 261 354 249 197 228 234 245 254 268 270 269 262 224 195 215 231 243 252 240 265 225 244 264 259 256
193 196 195 192 191 194 192 196 193 191 191 192 196 200 201 204 207 200 183 186 214 185 255 284 263 252 242 239 232 217 221 141 241 26 275 306 294 289 276 274 266 245 231 223 200 208 219 232 199 243 193 227 253 256
193 192 191 193 191 195 193 193 191 189 189 188 196 199 200 206 203 193 173 177 154 22 276 233 246 262 246 245 241 205 224 216 220 173 265 247 250 254 274 290 294 295 310 245 269 261 256 255 279 248 238 239 248 250
189 189 192 192 192 194 195 194 189 186 188 187 195 198 198 207 190 186 180 195 164 116 237 267 246 247 258 221 220 231 244 269 320 154 242 236 248 204 242 257 232 244 293 236 246 258 275 275 261 268 261 254 245 242
187 190 194 193 194 196 194 192 188 184 184 187 194 195 198 198 181 178 193 189 192 179 262 280 290 277 252 237 228 231 237 239 211 233 217 237 229 252 239 244 244 248 247 250 252 255 241 257 255 241 245 249 244 237
183 187 187 188 192 192 192 193 185 183 181 184 191 192 195 182 166 142 232 225 213 209 254 301 311 275 183 207 228 234 230 231 222 234 229 230 207 213 250 252 251 255 261 246 259 264 266 268 270 266 260 262 258 216
182 183 187 188 189 194 192 184 182 179 177 181 185 188 187 169 160 157 177 163 160 161 75 306 284 191 166 185 231 224 213 228 219 240 225 232 238 225 251 263 270 305 349 345 25 357 308 12 340 342 6 4 357 350
178 182 185 189 189 189 186 179 175 167 169 174 180 185 180 173 151 149 106 153 162 128 174 257 269 321 165 243 254 109 229 194 221 237 275 221 285 207 248 30 27 5 328 10 357 347 294 302 324 352 7 1 351 336
176 181 180 178 180 179 176 171 162 160 161 165 160 152 129 88 90 102 127 170 173 169 197 204 209 273 205 253 256 297 229 253 230 221 230 171 226 226 30 14 18 8 23 319 323 316 350 353 333 340 343 335 327 315
169 174 176 172 170 172 171 159 154 151 145 145 135 101 96 78 113 110 58 59 2 16 281 239 86 255 112 216 280 19 190 234 246 226 155 221 239 96 64 46 18 15 23 356 344 338 338 328 328 318 305 292 271 285
164 165 167 169 167 165 159 150 146 137 140 141 104 79 119 128 104 39 84 100 17 301 232 241 201 222 271 189 242 215 251 253 255 252 179 237 171 81 37 5 353 356 339 290 244 275 281 268 288 302 305 292 286 286
163 166 164 163 161 161 152 148 144 139 130 142 120 112 114 68 54 93 207 2 178 236 274 189 237 199 272 312 232 238 232 223 251 98 238 244 86 57 2 328 322 319 314 311 307 287 281 283 290 289 293 295 301 302
161 160 161 159 156 151 151 146 144 130 127 113 78 79 101 358 88 164 225 271 269 212 232 230 285 211 211 213 248 260 238 239 92 216 217 59 46 1 342 319 310 307 312 311 302 311 307 308 314 304 298 311 316 310
157 153 153 151 148 148 143 145 144 135 108 94 130 139 171 190 240 196 196 198 242 280 155 181 250 223 200 218 246 259 246 279 254 236 61 48 355 335 327 327 322 321 309 306 305 308 310 310 311 320 332 332 328 342
150 145 146 145 145 138 140 141 144 135 98 116 115 184 202 233 220 137 246 350 249 116 295 316 280 301 258 283 262 292 265 258 22 26 351 342 328 321 323 322 321 319 319 312 313 311 309 314 318 328 351 356 4 15
143 133 140 142 138 135 138 139 125 75 63 98 77 92 30 59 238 249 185 259 140 230 14 110 276 306 229 240 254 260 300 3 347 334 327 318 322 323 317 318 306 316 312 311 320 314 315 330 332 339 7 18 24 37
119 128 140 135 130 128 131 116 79 45 110 87 145 38 107 165 186 112 106 75 321 46 286 341 303 243 301 235 213 24 357 319 323 317 315 321 320 319 339 318 331 331 327 325 324 335 339 344 6 28 28 19 38 43
126 134 130 128 127 114 84 65 91 100 105 108 109 188 175 80 75 96 83 355 19 273 302 285 312 300 313 328 350 29 323 320 315 317 318 315 321 339 335 314 326 329 327 332 337 350 11 7 32 34 35 35 43 44
132 131 132 132 132 99 99 55 34 104 110 102 90 49 75 102 74 126 242 296 276 322 334 323 275 6 26 17 317 327 321 321 320 321 313 326 337 345 331 342 340 349 346 358 10 17 29 31 28 38 52 60 47 39
126 127 129 135 131 87 82 24 32 91 115 199 79 64 67 99 165 6 329 19 303 221 32 30 42 56 331 347 320 306 309 315 321 319 322 336 344 339 348 346 343 339 349 9 27 27 43 46 42 51 60 61 63 50
109 113 117 121 62 62 79 43 46 100 140 97 243 69 117 81 52 42 23 319 62 36 38 44 30 53 330 308 301 309 317 330 315 303 309 321 334 343 355 358 359 9 15 20 32 41 47 45 40 58 67 63 73 76
105 108 92 52 72 62 76 16 111 170 73 158 73 37 57 68 48 17 297 58 60 60 348 322 350 325 316 317 322 325 331 329 317 332 331 328 339 349 356 358 6 20 26 25 31 37 41 44 58 69 73 72 82 84
107 87 61 41 75 45 302 352 71 357 87 284 34 62 15 42 263 324 78 84 124 123 296 290 310 309 281 300 324 349 356 346 330 358 347 330 352 359 359 13 18 22 31 31 40 54 48 44 49 53 66 76 80 81
81 53 50 57 57 124 22 19 33 55 38 33 58 48 330 271 312 59 92 80 262 276 333 342 338 333 346 351 8 355 355 350 337 9 12 356 352 5 16 19 29 35 33 28 39 46 47 43 45 61 69 82 81 80
72 357 52 26 1 66 55 20 351 51 90 308 71 345 295 357 71 50 95 269 345 13 15 360 356 0 24 318 351 1 9 5 338 344 11 15 1 345 23 33 37 29 15 13 22 32 45 53 67 69 71 72 75 75
72 326 67 194 333 95 186 94 140 183 124 39 264 254 17 70 62 328 275 292 347 5 5 359 338 328 338 19 335 335 339 351 355 341 357 4 6 354 336 354 353 21 25 18 354 353 47 68 80 89 96 101 105 114
94 18 350 232 115 100 52 34 35 86 76 110 285 20 56 64 307 262 290 7 316 352 319 314 299 288 294 314 327 325 327 329 360 12 13 22 27 29 23 7 1 360 8 16 19 21 31 53 54 57 70 74 51 20
110 69 128 273 52 26 121 72 68 92 274 275 63 45 122 162 217 254 254 325 328 324 329 337 322 317 318 317 309 315 328 320 319 313 312 5 35 34 33 35 30 24 22 22 24 21 20 22 21 18 10 3 1 350
53 346 77 36 27 42 54 111 173 239 294 87 113 145 226 235 263 332 332 335 338 344 351 355 349 344 343 331 319 330 345 348 1 32 34 314 353 26 30 32 30 30 37 42 52 42 26 22 13 2 351 343 336 331
334 34 86 59 81 47 267 138 227 263 29 129 188 360 6 356 8 14 4 8 10 352 342 343 344 348 358 358 347 2 3 15 5 335 153 314 356 25 22 21 28 39 44 35 18 7 356 348 344 341 339 336 333 329
161 57 65 54 109 261 240 282 292 33 28 46 348 105 194 279 19 25 12 7 359 359 2 6 9 356 359 355 349 341 348 20 22 52 82 90 59 30 16 19 24 19 7 359 352 348 347 347 345 341 337 330 324 318
43 74 116 83 309 290 28 58 316 72 345 61 345 11 357 39 27 339 7 5 11 16 6 356 352 337 337 333 325 314 308 330 86 79 72 54 31 17 13 10 3 354 350 351 349 346 343 340 336 330 322 317 315 315
74 71 67 82 27 356 315 70 22 12 29 41 356 319 262 146 151 315 8 7 4 1 357 353 349 346 340 344 355 40 112 102 86 84 56 31 18 9 4 358 351 346 345 344 341 337 332 326 322 319 318 318 317 316